Total_Precipitation_Accumulation
0.03 0.03 0.02 0.02 0.02 0.02 0.01 0.01 0.01 0.00 0.00 0.00 0.00 0.00 0.00 0.00 0.01 0.01 0.01 0.01 0.01 0.01 0.01 0.01 0.01 0.01 0.00 0.01 0.00 0.00 0.01 0.00 0.00 0.00 0.00 0.00 0.00 0.00 0.00 0.00 0.00 0.00 0.00 0.00 0.01 0.00 0.01 0.00 0.00 0.01 0.01 0.01 0.01 0.06 0.01 0.03 0.14 0.32 1.44 0.90 1.29 1.90 1.46 1.40 1.36 1.68 0.50 1.35 1.53 1.38 1.47 1.44 0.82 0.56 0.92 0.35 0.42 0.67 0.24 0.22 0.05 0.05 0.06 0.02 0.00 0.00 0.00 0.01
0.03 0.02 0.01 0.01 0.02 0.02 0.01 0.01 0.00 0.00 0.00 0.00 0.00 0.00 0.00 0.00 0.00 0.01 0.01 0.01 0.01 0.01 0.01 0.01 0.01 0.01 0.01 0.00 0.00 0.00 0.01 0.00 0.00 0.00 0.00 0.00 0.00 0.00 0.00 0.00 0.00 0.00 0.00 0.00 0.00 0.00 0.00 0.00 0.00 0.00 0.01 0.03 0.00 0.02 0.02 0.10 0.04 0.40 0.74 1.32 1.88 1.01 0.70 1.13 0.82 1.15 1.74 1.03 1.25 1.41 1.18 1.09 1.09 0.44 0.68 0.72 0.31 0.23 0.17 0.19 0.11 0.05 0.04 0.00 0.01 0.00 0.01 0.01
0.02 0.01 0.01 0.02 0.02 0.01 0.01 0.01 0.00 0.00 0.00 0.00 0.00 0.00 0.00 0.00 0.00 0.01 0.01 0.01 0.01 0.01 0.01 0.01 0.01 0.01 0.01 0.00 0.00 0.00 0.01 0.00 0.00 0.00 0.00 0.00 0.00 0.00 0.00 0.00 0.00 0.00 0.00 0.00 0.00 0.00 0.00 0.00 0.00 0.00 0.00 0.01 0.01 0.05 0.01 0.14 0.08 0.29 0.57 1.59 1.55 0.85 1.12 0.71 0.79 0.90 0.90 1.15 0.99 1.38 0.85 1.56 1.11 1.36 0.64 0.68 0.61 0.47 0.29 0.12 0.06 0.04 0.03 0.02 0.04 0.02 0.01 0.02
0.01 0.02 0.02 0.02 0.01 0.01 0.01 0.00 0.00 0.00 0.00 0.00 0.00 0.00 0.00 0.00 0.00 0.01 0.01 0.01 0.01 0.01 0.01 0.01 0.01 0.01 0.01 0.00 0.00 0.01 0.00 0.00 0.00 0.00 0.00 0.00 0.00 0.00 0.00 0.00 0.00 0.00 0.00 0.00 0.00 0.00 0.00 0.00 0.00 0.00 0.00 0.01 0.00 0.01 0.04 0.07 0.14 0.41 0.49 0.93 1.39 0.62 0.87 0.82 1.11 0.68 0.43 1.18 1.40 1.16 1.47 1.24 0.98 0.84 1.05 0.73 0.58 0.37 0.35 0.08 0.07 0.02 0.01 0.02 0.01 0.01 0.01 0.02
0.02 0.02 0.03 0.02 0.01 0.01 0.00 0.00 0.00 0.00 0.00 0.00 0.00 0.00 0.00 0.00 0.00 0.00 0.01 0.01 0.01 0.01 0.01 0.01 0.01 0.01 0.00 0.00 0.00 0.00 0.00 0.00 0.00 0.00 0.00 0.00 0.00 0.00 0.00 0.00 0.00 0.00 0.00 0.00 0.00 0.00 0.00 0.00 0.00 0.00 0.00 0.00 0.01 0.02 0.02 0.02 0.01 0.06 0.33 0.44 0.44 0.38 0.91 0.50 0.79 0.42 0.31 0.76 1.15 1.29 1.08 1.75 0.90 0.47 0.81 0.70 0.85 0.68 0.45 0.09 0.06 0.00 0.00 0.00 0.01 0.01 0.00 0.01
0.02 0.02 0.02 0.02 0.01 0.00 0.00 0.00 0.00 0.00 0.00 0.00 0.00 0.00 0.00 0.00 0.00 0.01 0.01 0.01 0.01 0.01 0.01 0.01 0.02 0.00 0.00 0.00 0.00 0.00 0.00 0.00 0.00 0.00 0.00 0.00 0.00 0.00 0.00 0.00 0.00 0.00 0.00 0.00 0.00 0.00 0.00 0.00 0.00 0.00 0.00 0.00 0.00 0.02 0.00 0.03 0.01 0.35 0.32 0.06 0.09 0.17 0.63 0.25 0.30 0.40 0.59 0.56 0.96 0.75 1.27 1.08 0.98 0.92 0.94 0.79 2.01 1.01 0.35 0.19 0.04 0.00 0.00 0.00 0.00 0.00 0.00 0.00
0.02 0.03 0.02 0.01 0.01 0.01 0.00 0.00 0.00 0.00 0.00 0.00 0.00 0.00 0.00 0.00 0.00 0.00 0.00 0.01 0.01 0.01 0.01 0.01 0.01 0.00 0.00 0.00 0.00 0.00 0.00 0.00 0.00 0.00 0.00 0.00 0.00 0.00 0.00 0.00 0.00 0.00 0.00 0.00 0.00 0.00 0.00 0.00 0.00 0.00 0.00 0.00 0.00 0.00 0.00 0.00 0.06 0.02 0.57 0.13 0.40 0.18 0.05 0.20 0.22 0.23 0.41 0.72 1.14 1.21 0.78 1.32 1.04 1.36 0.79 1.19 0.79 0.64 0.43 0.37 0.02 0.02 0.00 0.00 0.00 0.00 0.00 0.00
0.02 0.02 0.01 0.01 0.00 0.01 0.01 0.00 0.00 0.00 0.00 0.00 0.00 0.00 0.00 0.00 0.00 0.00 0.00 0.01 0.01 0.01 0.01 0.01 0.01 0.00 0.00 0.00 0.00 0.00 0.00 0.00 0.00 0.00 0.00 0.00 0.00 0.00 0.00 0.00 0.00 0.00 0.00 0.00 0.00 0.00 0.00 0.00 0.00 0.00 0.00 0.00 0.00 0.01 0.00 0.00 0.07 0.12 0.14 0.02 0.06 0.36 0.20 0.12 0.06 0.34 0.26 0.64 1.19 0.66 0.88 1.57 0.96 0.95 0.40 0.77 0.46 0.16 0.35 0.11 0.02 0.00 0.00 0.00 0.00 0.00 0.00 0.00
0.02 0.02 0.01 0.00 0.00 0.01 0.00 0.00 0.01 0.00 0.00 0.00 0.00 0.00 0.00 0.00 0.00 0.00 0.00 0.00 0.01 0.01 0.01 0.01 0.00 0.00 0.01 0.00 0.00 0.00 0.00 0.00 0.00 0.00 0.00 0.00 0.00 0.00 0.00 0.00 0.00 0.00 0.00 0.00 0.00 0.00 0.00 0.00 0.00 0.00 0.00 0.00 0.00 0.00 0.00 0.01 0.35 0.03 0.28 0.03 0.01 0.04 0.41 0.45 0.05 0.28 0.20 0.53 0.55 0.81 1.10 1.31 0.69 0.37 1.23 1.33 0.74 0.41 0.31 0.08 0.01 0.00 0.00 0.00 0.00 0.00 0.00 0.00
0.02 0.01 0.01 0.00 0.00 0.00 0.00 0.00 0.00 0.00 0.00 0.00 0.00 0.00 0.00 0.00 0.00 0.00 0.00 0.00 0.00 0.01 0.01 0.00 0.00 0.00 0.00 0.00 0.00 0.00 0.00 0.00 0.00 0.00 0.00 0.00 0.00 0.00 0.00 0.00 0.00 0.00 0.00 0.00 0.00 0.00 0.00 0.00 0.00 0.00 0.00 0.00 0.00 0.00 0.00 0.02 0.87 0.01 0.03 0.06 0.04 0.40 0.44 0.65 0.40 0.34 0.48 0.57 0.48 0.98 1.09 1.22 0.49 0.44 1.07 1.20 0.30 0.27 0.43 0.05 0.03 0.00 0.00 0.00 0.00 0.00 0.00 0.00
0.02 0.01 0.00 0.00 0.01 0.00 0.00 0.00 0.00 0.00 0.00 0.00 0.00 0.00 0.00 0.00 0.00 0.00 0.00 0.00 0.01 0.01 0.01 0.01 0.00 0.01 0.00 0.00 0.00 0.00 0.00 0.00 0.00 0.00 0.00 0.00 0.00 0.00 0.00 0.00 0.00 0.00 0.00 0.00 0.00 0.00 0.00 0.00 0.00 0.00 0.00 0.00 0.00 0.00 0.00 0.01 0.00 0.01 0.01 0.02 0.11 0.30 0.44 0.72 0.77 0.55 0.90 0.58 0.56 1.34 1.63 1.30 1.57 0.55 1.16 0.54 0.30 0.57 0.57 0.05 0.03 0.00 0.00 0.00 0.00 0.00 0.00 0.00
0.01 0.01 0.00 0.00 0.00 0.00 0.00 0.00 0.00 0.00 0.00 0.00 0.00 0.00 0.00 0.00 0.00 0.00 0.00 0.00 0.00 0.00 0.00 0.00 0.00 0.00 0.00 0.00 0.00 0.00 0.00 0.00 0.00 0.00 0.00 0.00 0.00 0.00 0.00 0.00 0.00 0.00 0.00 0.00 0.00 0.00 0.00 0.00 0.00 0.00 0.00 0.00 0.00 0.00 0.00 0.00 0.00 0.00 0.00 0.41 0.32 0.70 0.55 0.82 0.64 0.94 0.81 0.76 0.33 0.58 1.16 1.05 1.43 0.77 0.68 0.51 0.32 0.37 0.39 0.11 0.02 0.01 0.00 0.00 0.00 0.00 0.00 0.00
0.01 0.00 0.00 0.00 0.00 0.00 0.00 0.00 0.00 0.00 0.00 0.00 0.00 0.00 0.00 0.00 0.00 0.00 0.00 0.00 0.00 0.00 0.00 0.00 0.01 0.00 0.00 0.00 0.00 0.00 0.00 0.00 0.00 0.00 0.00 0.00 0.00 0.00 0.00 0.00 0.00 0.00 0.00 0.00 0.00 0.00 0.00 0.00 0.00 0.00 0.00 0.00 0.00 0.00 0.00 0.00 0.00 0.00 0.01 0.01 0.13 0.45 0.60 0.50 1.23 0.99 1.01 1.16 0.57 0.78 1.37 0.79 1.14 0.80 0.64 0.23 0.37 0.26 0.22 0.24 0.01 0.01 0.00 0.00 0.00 0.00 0.00 0.00
0.01 0.00 0.00 0.00 0.00 0.00 0.00 0.00 0.00 0.00 0.00 0.00 0.00 0.00 0.00 0.00 0.00 0.00 0.00 0.00 0.00 0.00 0.00 0.00 0.00 0.00 0.00 0.00 0.00 0.00 0.00 0.00 0.00 0.00 0.00 0.00 0.00 0.00 0.00 0.00 0.00 0.00 0.00 0.00 0.00 0.00 0.00 0.00 0.00 0.00 0.00 0.00 0.00 0.00 0.00 0.01 0.00 0.06 0.05 0.08 0.15 0.06 0.71 0.51 0.48 0.60 0.93 0.48 0.57 0.33 1.15 1.08 0.81 0.69 0.73 0.26 0.40 0.09 0.14 0.14 0.09 0.01 0.01 0.00 0.00 0.00 0.00 0.00
0.01 0.00 0.00 0.00 0.00 0.00 0.00 0.00 0.00 0.00 0.00 0.00 0.00 0.00 0.00 0.00 0.00 0.00 0.00 0.00 0.00 0.00 0.00 0.02 0.00 0.00 0.00 0.00 0.00 0.00 0.00 0.00 0.00 0.00 0.00 0.00 0.00 0.00 0.00 0.00 0.00 0.00 0.00 0.00 0.00 0.00 0.00 0.00 0.00 0.00 0.00 0.00 0.00 0.00 0.00 0.00 0.01 0.01 0.02 0.03 0.01 0.02 0.46 0.47 0.28 0.28 0.47 0.39 0.56 0.26 1.02 1.15 0.68 0.53 0.74 0.50 0.36 0.80 0.58 0.23 0.04 0.02 0.01 0.00 0.00 0.00 0.00 0.00
0.00 0.00 0.00 0.00 0.00 0.00 0.00 0.00 0.00 0.00 0.00 0.00 0.00 0.00 0.00 0.00 0.00 0.00 0.00 0.00 0.00 0.00 0.02 0.00 0.00 0.00 0.00 0.00 0.00 0.00 0.00 0.00 0.00 0.00 0.00 0.00 0.00 0.00 0.00 0.00 0.00 0.00 0.00 0.00 0.00 0.00 0.00 0.00 0.00 0.00 0.00 0.00 0.00 0.00 0.00 0.00 0.01 0.01 0.00 0.02 0.06 0.02 0.21 0.41 0.68 0.30 0.60 0.75 0.50 0.60 1.66 0.52 0.61 0.47 0.51 0.34 0.76 0.69 0.35 0.20 0.07 0.03 0.03 0.02 0.01 0.01 0.01 0.00
0.00 0.00 0.00 0.00 0.00 0.00 0.00 0.00 0.00 0.00 0.00 0.00 0.00 0.00 0.00 0.00 0.00 0.00 0.00 0.00 0.00 0.00 0.00 0.00 0.00 0.00 0.00 0.00 0.00 0.00 0.00 0.00 0.00 0.00 0.00 0.00 0.00 0.00 0.00 0.00 0.00 0.00 0.00 0.00 0.00 0.00 0.00 0.00 0.00 0.00 0.00 0.00 0.00 0.00 0.00 0.00 0.05 0.02 0.00 0.04 0.01 0.03 0.06 0.65 0.36 0.66 0.79 0.40 0.55 0.28 0.57 0.83 0.44 0.44 0.29 0.41 0.52 0.57 0.12 0.13 0.13 0.05 0.02 0.03 0.04 0.00 0.02 0.02
0.00 0.00 0.00 0.00 0.01 0.00 0.00 0.00 0.00 0.00 0.00 0.00 0.00 0.00 0.00 0.00 0.00 0.00 0.00 0.00 0.00 0.00 0.00 0.00 0.00 0.00 0.00 0.00 0.00 0.00 0.00 0.00 0.00 0.00 0.00 0.00 0.00 0.00 0.00 0.00 0.00 0.00 0.00 0.00 0.00 0.00 0.00 0.00 0.00 0.00 0.00 0.00 0.00 0.00 0.01 0.05 0.01 0.01 0.02 0.01 0.03 0.01 0.02 0.55 0.28 0.37 0.39 0.57 0.73 0.37 0.54 0.66 0.54 0.24 0.48 0.43 0.96 0.56 0.33 0.16 0.44 0.09 0.05 0.04 0.04 0.03 0.06 0.03
0.00 0.00 0.00 0.00 0.01 0.01 0.00 0.00 0.00 0.00 0.00 0.00 0.00 0.00 0.00 0.01 0.00 0.00 0.00 0.00 0.00 0.00 0.00 0.00 0.00 0.00 0.00 0.00 0.00 0.00 0.00 0.00 0.00 0.00 0.00 0.00 0.00 0.00 0.00 0.00 0.00 0.00 0.00 0.00 0.00 0.00 0.00 0.00 0.00 0.00 0.00 0.00 0.00 0.00 0.03 0.00 0.00 0.02 0.02 0.01 0.01 0.05 0.22 0.45 0.32 0.16 0.39 0.34 0.53 0.54 0.47 0.58 0.53 0.56 1.27 1.02 0.42 0.79 0.39 0.45 0.60 0.23 0.09 0.06 0.06 0.02 0.04 0.05
0.00 0.00 0.00 0.00 0.00 0.00 0.00 0.00 0.00 0.00 0.00 0.00 0.00 0.00 0.00 0.00 0.00 0.00 0.00 0.00 0.00 0.00 0.00 0.00 0.00 0.00 0.00 0.00 0.00 0.00 0.00 0.00 0.00 0.00 0.00 0.00 0.00 0.00 0.00 0.00 0.00 0.00 0.00 0.00 0.00 0.00 0.00 0.00 0.00 0.00 0.00 0.00 0.00 0.00 0.01 0.00 0.00 0.00 0.00 0.00 0.00 0.01 0.04 0.05 0.08 0.01 0.14 0.33 0.35 0.33 0.44 0.49 0.48 0.75 1.17 1.06 0.69 0.89 0.72 0.85 0.49 0.34 0.47 0.08 0.05 0.05 0.05 0.02
0.00 0.00 0.00 0.00 0.00 0.00 0.00 0.00 0.00 0.00 0.01 0.00 0.00 0.00 0.00 0.00 0.00 0.00 0.00 0.00 0.00 0.00 0.00 0.00 0.00 0.00 0.00 0.00 0.00 0.00 0.00 0.00 0.00 0.00 0.00 0.00 0.00 0.00 0.00 0.00 0.00 0.00 0.00 0.00 0.00 0.00 0.00 0.00 0.00 0.00 0.00 0.00 0.00 0.00 0.00 0.00 0.00 0.00 0.00 0.00 0.01 0.00 0.02 0.01 0.05 0.01 0.13 0.40 0.27 0.26 0.12 0.64 1.10 0.74 0.79 0.78 0.44 0.38 0.17 0.27 0.29 0.53 0.22 0.19 0.04 0.03 0.08 0.05
0.00 0.00 0.00 0.00 0.00 0.00 0.00 0.00 0.00 0.00 0.00 0.00 0.00 0.00 0.00 0.00 0.00 0.00 0.00 0.00 0.00 0.00 0.00 0.00 0.00 0.00 0.00 0.00 0.00 0.00 0.00 0.00 0.00 0.00 0.00 0.00 0.00 0.00 0.00 0.00 0.00 0.00 0.00 0.00 0.00 0.00 0.00 0.00 0.00 0.00 0.00 0.00 0.00 0.00 0.00 0.00 0.00 0.00 0.01 0.00 0.01 0.01 0.00 0.01 0.01 0.03 0.14 0.31 0.08 0.47 0.40 0.55 0.67 0.76 0.97 0.80 0.56 0.62 0.23 0.37 0.72 0.51 0.41 0.35 0.20 0.06 0.07 0.02
0.00 0.00 0.00 0.00 0.00 0.00 0.00 0.00 0.00 0.00 0.00 0.00 0.00 0.00 0.00 0.00 0.00 0.00 0.00 0.00 0.00 0.00 0.00 0.00 0.00 0.00 0.00 0.00 0.00 0.00 0.00 0.00 0.00 0.00 0.00 0.00 0.00 0.00 0.00 0.00 0.00 0.00 0.00 0.00 0.00 0.00 0.00 0.00 0.00 0.00 0.00 0.00 0.00 0.00 0.00 0.00 0.00 0.00 0.00 0.00 0.02 0.01 0.01 0.04 0.50 0.32 0.12 0.17 0.55 0.58 0.23 0.30 0.91 0.94 1.37 1.25 0.47 0.66 0.74 0.80 0.66 1.17 0.78 0.52 0.25 0.34 0.11 0.04
0.00 0.00 0.00 0.00 0.00 0.00 0.00 0.00 0.00 0.00 0.00 0.00 0.00 0.00 0.00 0.00 0.00 0.00 0.00 0.00 0.00 0.00 0.00 0.00 0.00 0.00 0.00 0.00 0.00 0.00 0.00 0.00 0.00 0.00 0.00 0.00 0.00 0.00 0.00 0.00 0.00 0.00 0.00 0.00 0.00 0.00 0.00 0.00 0.00 0.00 0.00 0.00 0.00 0.00 0.00 0.00 0.00 0.00 0.00 0.01 0.01 0.00 0.00 0.00 0.05 0.09 0.18 0.52 0.29 0.31 0.35 0.58 0.51 0.56 0.50 0.69 0.68 1.17 1.00 0.76 1.34 1.18 0.97 0.48 0.35 0.47 0.36 0.13
0.00 0.00 0.00 0.00 0.00 0.00 0.00 0.00 0.00 0.00 0.00 0.00 0.00 0.00 0.00 0.00 0.00 0.00 0.00 0.00 0.00 0.00 0.00 0.00 0.00 0.00 0.00 0.00 0.00 0.00 0.00 0.00 0.00 0.00 0.00 0.00 0.00 0.00 0.00 0.00 0.00 0.00 0.00 0.00 0.00 0.00 0.00 0.00 0.00 0.00 0.00 0.00 0.00 0.00 0.00 0.00 0.01 0.00 0.00 0.00 0.01 0.00 0.00 0.00 0.00 0.00 0.03 0.48 0.24 0.21 0.48 0.69 0.11 0.62 0.55 0.53 0.64 0.77 1.01 1.12 1.13 1.06 0.77 0.35 0.38 0.16 0.37 0.40
0.00 0.00 0.00 0.00 0.00 0.00 0.00 0.00 0.00 0.00 0.00 0.00 0.00 0.00 0.00 0.00 0.00 0.00 0.00 0.00 0.00 0.00 0.00 0.00 0.00 0.00 0.00 0.00 0.00 0.00 0.00 0.00 0.00 0.00 0.00 0.00 0.00 0.00 0.00 0.00 0.00 0.00 0.00 0.00 0.00 0.00 0.00 0.00 0.00 0.00 0.00 0.00 0.00 0.00 0.00 0.00 0.00 0.00 0.00 0.00 0.00 0.00 0.01 0.01 0.00 0.00 0.07 0.35 0.04 0.00 0.12 0.62 0.22 0.42 0.60 0.60 0.63 0.85 1.21 1.02 0.92 1.04 0.89 0.46 0.41 0.19 0.08 0.05
0.00 0.00 0.00 0.00 0.00 0.01 0.00 0.00 0.00 0.00 0.00 0.00 0.00 0.00 0.00 0.00 0.00 0.00 0.00 0.00 0.00 0.00 0.00 0.00 0.00 0.00 0.00 0.00 0.00 0.00 0.00 0.00 0.00 0.00 0.00 0.00 0.00 0.00 0.00 0.00 0.00 0.00 0.00 0.00 0.00 0.00 0.00 0.00 0.00 0.00 0.00 0.00 0.00 0.00 0.00 0.00 0.00 0.00 0.00 0.00 0.00 0.00 0.02 0.01 0.00 0.00 0.01 0.00 0.00 0.19 0.02 0.13 0.18 0.24 0.24 0.83 0.82 0.87 0.97 0.76 1.12 0.96 0.74 0.70 0.29 0.38 0.12 0.06
0.00 0.00 0.00 0.00 0.00 0.02 0.01 0.00 0.00 0.00 0.00 0.00 0.00 0.00 0.00 0.00 0.00 0.00 0.00 0.00 0.00 0.00 0.00 0.00 0.00 0.00 0.00 0.00 0.00 0.00 0.00 0.00 0.00 0.00 0.00 0.00 0.00 0.00 0.00 0.00 0.00 0.00 0.00 0.00 0.00 0.00 0.00 0.00 0.00 0.00 0.00 0.00 0.00 0.00 0.00 0.00 0.00 0.00 0.00 0.00 0.00 0.00 0.00 0.01 0.00 0.01 0.00 0.01 0.06 0.01 0.01 0.07 0.14 0.48 0.38 0.72 0.93 0.89 1.15 1.32 0.95 0.72 0.49 0.50 0.40 0.24 0.16 0.07
0.00 0.00 0.00 0.00 0.00 0.00 0.00 0.00 0.00 0.00 0.00 0.00 0.00 0.00 0.00 0.00 0.00 0.00 0.02 0.07 0.00 0.00 0.00 0.00 0.00 0.00 0.00 0.00 0.00 0.00 0.00 0.00 0.00 0.00 0.00 0.00 0.00 0.00 0.00 0.00 0.00 0.00 0.00 0.00 0.00 0.00 0.00 0.00 0.00 0.00 0.00 0.00 0.00 0.00 0.00 0.00 0.00 0.00 0.00 0.00 0.00 0.01 0.00 0.00 0.04 0.06 0.13 0.02 0.03 0.00 0.01 0.13 0.29 0.65 0.19 0.46 0.63 0.54 0.50 0.83 0.65 1.13 0.57 0.46 0.41 0.37 0.51 0.31
0.00 0.00 0.00 0.00 0.00 0.00 0.00 0.00 0.00 0.00 0.00 0.00 0.00 0.00 0.00 0.00 0.00 0.00 0.01 0.03 0.00 0.00 0.00 0.00 0.00 0.00 0.00 0.00 0.00 0.00 0.00 0.00 0.00 0.00 0.00 0.00 0.00 0.00 0.00 0.00 0.00 0.00 0.00 0.00 0.00 0.00 0.00 0.00 0.00 0.00 0.00 0.00 0.00 0.00 0.00 0.00 0.00 0.00 0.00 0.00 0.00 0.01 0.00 0.05 0.01 0.01 0.01 0.02 0.00 0.01 0.02 0.01 0.24 0.43 0.18 0.44 0.14 0.16 0.38 0.55 0.54 0.62 0.68 0.54 0.40 0.35 0.28 0.24
0.00 0.00 0.00 0.00 0.00 0.00 0.00 0.00 0.00 0.00 0.00 0.00 0.00 0.00 0.00 0.00 0.00 0.02 0.04 0.02 0.00 0.00 0.00 0.00 0.00 0.00 0.00 0.00 0.00 0.00 0.00 0.00 0.00 0.00 0.00 0.00 0.00 0.00 0.00 0.00 0.00 0.00 0.00 0.00 0.02 0.00 0.00 0.00 0.00 0.00 0.00 0.00 0.00 0.00 0.00 0.00 0.00 0.00 0.00 0.00 0.00 0.00 0.00 0.00 0.00 0.02 0.00 0.00 0.00 0.00 0.01 0.03 0.12 0.24 0.24 0.03 0.04 0.06 0.10 0.38 0.58 0.54 0.41 0.58 0.57 0.68 0.27 0.35
0.00 0.00 0.00 0.00 0.00 0.01 0.00 0.00 0.00 0.00 0.00 0.00 0.00 0.00 0.00 0.02 0.00 0.11 0.05 0.00 0.02 0.00 0.00 0.00 0.00 0.00 0.00 0.00 0.00 0.00 0.00 0.00 0.00 0.00 0.00 0.00 0.00 0.00 0.00 0.00 0.00 0.04 0.00 0.00 0.00 0.00 0.00 0.00 0.00 0.00 0.00 0.00 0.00 0.00 0.00 0.00 0.00 0.00 0.00 0.00 0.00 0.03 0.00 0.00 0.00 0.01 0.00 0.02 0.03 0.01 0.01 0.02 0.18 0.02 0.03 0.05 0.01 0.02 0.03 0.09 0.22 0.54 0.48 0.54 0.54 0.65 0.67 0.62
0.00 0.00 0.00 0.00 0.00 0.00 0.00 0.00 0.00 0.00 0.00 0.00 0.00 0.00 0.01 0.15 0.07 0.06 0.04 0.00 0.02 0.00 0.00 0.00 0.00 0.00 0.00 0.00 0.00 0.00 0.00 0.00 0.00 0.00 0.00 0.00 0.00 0.00 0.00 0.00 0.00 0.00 0.01 0.00 0.00 0.00 0.00 0.00 0.00 0.00 0.00 0.00 0.00 0.00 0.00 0.00 0.00 0.00 0.00 0.00 0.00 0.00 0.00 0.00 0.00 0.00 0.01 0.00 0.00 0.01 0.02 0.05 0.08 0.09 0.03 0.05 0.01 0.00 0.01 0.03 0.09 0.32 0.35 0.36 0.34 0.26 0.55 0.60
0.00 0.00 0.00 0.00 0.00 0.00 0.00 0.00 0.00 0.00 0.00 0.00 0.00 0.00 0.04 0.07 0.15 0.02 0.01 0.00 0.01 0.00 0.00 0.01 0.00 0.00 0.00 0.00 0.00 0.00 0.01 0.00 0.00 0.00 0.00 0.00 0.00 0.00 0.00 0.00 0.00 0.00 0.00 0.00 0.00 0.00 0.00 0.00 0.00 0.00 0.00 0.00 0.00 0.00 0.00 0.00 0.00 0.00 0.00 0.00 0.00 0.00 0.00 0.00 0.00 0.00 0.01 0.02 0.03 0.03 0.01 0.04 0.04 0.44 0.10 0.29 0.00 0.01 0.00 0.03 0.08 0.15 0.41 0.59 0.58 0.33 0.48 0.35
0.00 0.00 0.00 0.00 0.00 0.00 0.00 0.00 0.00 0.00 0.00 0.00 0.00 0.09 0.14 0.06 0.03 0.03 0.01 0.00 0.00 0.00 0.00 0.00 0.00 0.00 0.01 0.00 0.00 0.00 0.00 0.00 0.00 0.00 0.00 0.00 0.00 0.00 0.00 0.00 0.00 0.00 0.00 0.00 0.00 0.00 0.00 0.00 0.00 0.00 0.00 0.00 0.00 0.00 0.00 0.00 0.00 0.00 0.00 0.00 0.00 0.00 0.00 0.00 0.00 0.00 0.00 0.00 0.01 0.03 0.16 0.21 0.13 0.04 0.24 0.25 0.18 0.02 0.10 0.27 0.32 0.38 0.51 0.43 0.61 0.77 0.61 0.43
0.00 0.00 0.00 0.00 0.00 0.00 0.00 0.00 0.00 0.00 0.00 0.00 0.04 0.09 0.12 0.00 0.02 0.00 0.01 0.00 0.00 0.00 0.00 0.00 0.00 0.00 0.00 0.01 0.00 0.01 0.00 0.00 0.00 0.00 0.00 0.00 0.00 0.00 0.00 0.00 0.00 0.00 0.00 0.01 0.00 0.00 0.00 0.00 0.00 0.00 0.00 0.00 0.00 0.00 0.00 0.00 0.00 0.00 0.00 0.00 0.00 0.00 0.00 0.00 0.00 0.00 0.00 0.00 0.04 0.02 0.02 0.05 0.01 0.06 0.16 0.53 0.70 0.23 0.16 0.20 0.13 0.22 0.26 0.27 0.37 0.40 0.77 0.35
0.00 0.00 0.01 0.00 0.00 0.00 0.00 0.00 0.00 0.00 0.00 0.00 0.08 0.13 0.01 0.00 0.00 0.00 0.00 0.00 0.00 0.00 0.00 0.00 0.00 0.00 0.00 0.00 0.00 0.00 0.00 0.00 0.00 0.00 0.02 0.00 0.00 0.00 0.00 0.00 0.00 0.00 0.00 0.00 0.00 0.00 0.00 0.00 0.00 0.00 0.00 0.00 0.00 0.00 0.00 0.00 0.00 0.00 0.00 0.00 0.00 0.00 0.00 0.00 0.00 0.00 0.00 0.00 0.12 0.09 0.05 0.03 0.06 0.40 0.36 0.76 0.68 0.62 0.12 0.08 0.06 0.07 0.15 0.24 0.15 0.37 0.27 0.51
0.00 0.00 0.00 0.00 0.00 0.00 0.00 0.00 0.00 0.00 0.00 0.07 0.10 0.01 0.00 0.01 0.00 0.00 0.00 0.00 0.00 0.00 0.00 0.00 0.00 0.00 0.00 0.00 0.00 0.00 0.00 0.00 0.00 0.00 0.00 0.00 0.00 0.00 0.00 0.00 0.00 0.00 0.00 0.00 0.00 0.00 0.00 0.00 0.00 0.00 0.00 0.00 0.00 0.00 0.00 0.00 0.00 0.00 0.00 0.00 0.00 0.00 0.00 0.00 0.00 0.00 0.00 0.00 0.17 0.33 0.25 0.12 0.14 0.29 0.15 0.11 0.08 0.09 0.04 0.15 0.36 0.09 0.15 0.18 0.27 0.33 0.12 0.15
0.00 0.00 0.00 0.00 0.00 0.00 0.00 0.00 0.00 0.00 0.02 0.13 0.07 0.05 0.01 0.01 0.00 0.00 0.00 0.00 0.00 0.00 0.00 0.00 0.00 0.00 0.00 0.00 0.00 0.00 0.00 0.00 0.00 0.00 0.01 0.00 0.00 0.00 0.00 0.00 0.00 0.00 0.00 0.00 0.00 0.00 0.00 0.00 0.00 0.00 0.00 0.00 0.00 0.00 0.00 0.00 0.00 0.00 0.00 0.00 0.00 0.00 0.00 0.00 0.00 0.03 0.00 0.06 0.00 0.59 0.51 0.43 0.46 0.53 0.17 0.22 0.21 0.06 0.03 0.01 0.03 0.09 0.14 0.10 0.13 0.18 0.09 0.13
0.00 0.01 0.00 0.00 0.00 0.00 0.00 0.00 0.00 0.01 0.11 0.18 0.04 0.03 0.01 0.00 0.00 0.00 0.00 0.00 0.00 0.00 0.06 0.00 0.00 0.00 0.00 0.00 0.00 0.00 0.00 0.00 0.00 0.01 0.00 0.01 0.00 0.00 0.00 0.00 0.00 0.00 0.00 0.00 0.00 0.00 0.00 0.00 0.01 0.00 0.00 0.00 0.00 0.00 0.00 0.00 0.00 0.00 0.00 0.00 0.00 0.00 0.00 0.00 0.00 0.00 0.00 0.02 0.00 0.05 0.17 0.13 0.15 0.19 0.25 0.21 0.11 0.03 0.04 0.05 0.06 0.18 0.16 0.12 0.14 0.12 0.10 0.20
0.00 0.00 0.00 0.00 0.00 0.00 0.00 0.00 0.03 0.10 0.05 0.11 0.01 0.02 0.01 0.01 0.00 0.00 0.00 0.00 0.00 0.00 0.00 0.00 0.00 0.00 0.00 0.01 0.02 0.00 0.00 0.00 0.01 0.01 0.00 0.01 0.00 0.00 0.00 0.00 0.00 0.00 0.00 0.00 0.00 0.00 0.00 0.00 0.00 0.01 0.00 0.00 0.00 0.00 0.00 0.00 0.00 0.00 0.00 0.00 0.00 0.00 0.00 0.00 0.00 0.00 0.00 0.00 0.06 0.02 0.18 0.08 0.05 0.33 0.23 0.76 0.52 0.01 0.01 0.16 0.31 0.31 0.30 0.25 0.20 0.24 0.26 0.15
0.00 0.04 0.00 0.00 0.00 0.00 0.00 0.09 0.07 0.05 0.05 0.07 0.10 0.01 0.02 0.00 0.01 0.00 0.00 0.00 0.00 0.00 0.00 0.00 0.00 0.00 0.00 0.00 0.00 0.01 0.00 0.00 0.02 0.02 0.01 0.01 0.00 0.00 0.00 0.00 0.00 0.00 0.00 0.00 0.01 0.04 0.00 0.01 0.00 0.00 0.01 0.01 0.00 0.00 0.00 0.00 0.00 0.00 0.00 0.00 0.00 0.00 0.00 0.00 0.00 0.01 0.00 0.03 0.01 0.07 0.03 0.18 0.10 0.53 0.10 0.05 0.01 0.00 0.00 0.00 0.01 0.20 0.12 0.03 0.03 0.02 0.06 0.10
0.00 0.00 0.00 0.00 0.00 0.00 0.00 0.05 0.03 0.02 0.08 0.03 0.01 0.03 0.01 0.02 0.01 0.04 0.01 0.03 0.02 0.05 0.02 0.01 0.00 0.01 0.01 0.00 0.00 0.00 0.00 0.01 0.02 0.03 0.02 0.02 0.02 0.00 0.00 0.00 0.00 0.00 0.00 0.00 0.00 0.00 0.00 0.00 0.01 0.00 0.00 0.00 0.00 0.01 0.00 0.00 0.00 0.00 0.00 0.00 0.00 0.00 0.00 0.00 0.00 0.00 0.00 0.11 0.02 0.05 0.05 0.08 0.19 0.27 0.33 0.50 0.00 0.00 0.00 0.00 0.00 0.00 0.00 0.00 0.08 0.00 0.00 0.01
0.00 0.01 0.00 0.00 0.00 0.00 0.02 0.13 0.11 0.03 0.01 0.01 0.02 0.03 0.00 0.01 0.01 0.06 0.04 0.05 0.04 0.05 0.04 0.03 0.02 0.04 0.02 0.00 0.01 0.00 0.01 0.01 0.04 0.03 0.04 0.05 0.04 0.01 0.00 0.00 0.00 0.00 0.00 0.00 0.00 0.03 0.00 0.00 0.00 0.02 0.01 0.00 0.00 0.00 0.00 0.00 0.00 0.00 0.00 0.00 0.00 0.00 0.00 0.00 0.00 0.01 0.00 0.02 0.04 0.03 0.13 0.12 0.15 0.15 0.14 0.40 0.11 0.00 0.00 0.00 0.00 0.00 0.00 0.01 0.13 0.39 0.01 0.00
0.02 0.01 0.00 0.00 0.00 0.00 0.06 0.09 0.06 0.08 0.02 0.01 0.04 0.02 0.04 0.03 0.02 0.02 0.03 0.05 0.04 0.05 0.01 0.04 0.08 0.09 0.03 0.02 0.01 0.00 0.01 0.00 0.04 0.04 0.05 0.06 0.04 0.02 0.00 0.00 0.00 0.00 0.00 0.00 0.00 0.00 0.00 0.00 0.04 0.07 0.00 0.02 0.01 0.10 0.10 0.16 0.01 0.00 0.00 0.00 0.00 0.00 0.00 0.00 0.00 0.00 0.00 0.05 0.02 0.04 0.15 0.09 0.03 0.19 0.17 0.20 0.07 0.00 0.00 0.00 0.00 0.01 0.00 0.00 0.00 0.02 0.08 0.00
0.01 0.17 0.01 0.00 0.00 0.02 0.02 0.00 0.02 0.07 0.05 0.02 0.02 0.03 0.01 0.06 0.03 0.03 0.02 0.03 0.01 0.02 0.05 0.05 0.03 0.03 0.09 0.08 0.04 0.02 0.01 0.01 0.02 0.06 0.10 0.12 0.06 0.04 0.02 0.01 0.00 0.00 0.00 0.00 0.00 0.00 0.00 0.00 0.00 0.00 0.05 0.13 0.27 0.03 0.00 0.00 0.00 0.01 0.00 0.00 0.00 0.00 0.00 0.00 0.00 0.00 0.00 0.01 0.07 0.04 0.05 0.01 0.05 0.05 0.09 0.11 0.13 0.00 0.00 0.00 0.00 0.00 0.00 0.07 0.00 0.00 0.00 0.00
0.17 0.06 0.02 0.27 0.02 0.12 0.01 0.09 0.05 0.11 0.08 0.03 0.09 0.04 0.05 0.03 0.01 0.03 0.02 0.15 0.08 0.02 0.02 0.06 0.06 0.06 0.12 0.10 0.10 0.07 0.04 0.01 0.03 0.05 0.11 0.11 0.07 0.04 0.03 0.02 0.01 0.00 0.01 0.00 0.00 0.00 0.00 0.00 0.00 0.00 0.00 0.01 0.02 0.00 0.02 0.00 0.00 0.00 0.00 0.00 0.00 0.00 0.00 0.00 0.00 0.00 0.00 0.00 0.05 0.09 0.01 0.01 0.06 0.02 0.06 0.06 0.04 0.18 0.00 0.00 0.00 0.00 0.01 0.02 0.04 0.01 0.00 0.00
0.27 0.08 0.05 0.41 0.15 0.07 0.13 0.07 0.03 0.07 0.06 0.09 0.34 0.05 0.06 0.03 0.02 0.09 0.01 0.02 0.02 0.08 0.06 0.45 0.08 0.13 0.12 0.09 0.08 0.11 0.12 0.08 0.03 0.06 0.13 0.10 0.11 0.16 0.10 0.07 0.03 0.03 0.01 0.01 0.00 0.01 0.00 0.00 0.00 0.00 0.00 0.00 0.00 0.00 0.01 0.00 0.00 0.00 0.00 0.00 0.01 0.00 0.00 0.00 0.00 0.00 0.00 0.02 0.17 0.06 0.03 0.06 0.06 0.02 0.04 0.06 0.11 0.22 0.11 0.00 0.00 0.00 0.01 0.01 0.01 0.00 0.00 0.00
0.08 0.17 0.03 0.17 0.18 0.14 0.05 0.06 0.02 0.06 0.05 0.06 0.09 0.08 0.03 0.02 0.02 0.04 0.02 0.02 0.01 0.07 0.18 0.21 0.08 0.11 0.10 0.15 0.11 0.19 0.16 0.14 0.21 0.17 0.08 0.16 0.09 0.06 0.08 0.10 0.07 0.02 0.02 0.01 0.00 0.00 0.01 0.00 0.00 0.00 0.00 0.00 0.01 0.00 0.00 0.00 0.00 0.00 0.00 0.00 0.00 0.00 0.00 0.00 0.00 0.00 0.00 0.01 0.01 0.02 0.04 0.11 0.10 0.13 0.05 0.06 0.02 0.19 0.32 0.03 0.01 0.02 0.02 0.01 0.01 0.01 0.00 0.01
0.39 0.22 0.90 0.11 0.49 0.14 0.04 0.06 0.04 0.04 0.05 0.09 0.12 0.17 0.12 0.06 0.05 0.03 0.03 0.03 0.06 0.05 0.12 0.07 0.07 0.07 0.07 0.06 0.09 0.18 0.22 0.06 0.10 0.09 0.04 0.04 0.07 0.06 0.09 0.09 0.11 0.10 0.03 0.05 0.01 0.03 0.00 0.02 0.01 0.00 0.00 0.00 0.00 0.00 0.00 0.00 0.00 0.00 0.00 0.00 0.00 0.01 0.00 0.00 0.00 0.00 0.00 0.00 0.03 0.02 0.04 0.04 0.08 0.04 0.09 0.09 0.08 0.18 0.28 0.42 0.06 0.14 0.03 0.02 0.01 0.01 0.01 0.01
0.36 0.58 0.88 0.76 0.32 0.25 0.20 0.10 0.12 0.19 0.22 0.05 0.09 0.12 0.04 0.11 0.11 0.13 0.05 0.03 0.04 0.10 0.20 0.07 0.05 0.07 0.07 0.07 0.08 0.15 0.06 0.05 0.04 0.03 0.02 0.02 0.08 0.09 0.07 0.15 0.06 0.17 0.15 0.10 0.07 0.05 0.00 0.04 0.00 0.00 0.00 0.00 0.00 0.02 0.00 0.00 0.00 0.00 0.00 0.00 0.00 0.00 0.00 0.00 0.00 0.04 0.01 0.03 0.03 0.06 0.04 0.10 0.04 0.05 0.01 0.15 0.15 0.07 0.54 0.63 0.26 0.07 0.10 0.23 0.04 0.03 0.03 0.02
0.33 0.70 0.68 0.95 0.52 0.32 0.20 0.05 0.09 0.15 0.21 0.13 0.29 0.10 0.11 0.10 0.07 0.14 0.28 0.07 0.09 0.27 0.11 0.14 0.10 0.09 0.04 0.05 0.17 0.13 0.09 0.03 0.02 0.01 0.01 0.01 0.00 0.01 0.02 0.03 0.04 0.05 0.10 0.10 0.09 0.10 0.05 0.06 0.01 0.03 0.01 0.01 0.01 0.03 0.05 0.02 0.02 0.01 0.01 0.00 0.00 0.00 0.03 0.01 0.01 0.02 0.04 0.02 0.04 0.08 0.37 0.03 0.09 0.18 0.10 0.01 0.05 0.30 0.22 0.49 0.60 0.34 0.08 0.30 0.22 0.12 0.22 0.06